Location: Enikep?du
(16.5133°N, 80.7066°E)
Time: 20:16:59
(UTC+00:00)

Sich 1 Rocket - Pass Details

Date: 15 May 2026
Orbit: 612 x 645 km, 82.5° (Epoch: 7 June)

Event Time Altitude Azimuth Distance (km) Brightness Sun altitude
Rises 14:14:23 0° 193° (SSW) 2,867 6.8 -17.1°
Reaches altitude 10° 14:16:39 10° 198° (SSW) 1,961 6.0 -17.6°
Maximum altitude 14:20:53 53° 275° (W) 750 4.3 -18.5°
Drops below altitude 10° 14:25:07 10° 353° (N) 1,963 6.6 -19.4°
Sets 14:27:23 0° 358° (N) 2,869 7.4 -19.9°
